World > North America > United States > Missouri

Elmira, Missouri Regional Weather

Lat: 39.51N, Lon: 94.15W
Wx Zone: MOZ030Web Search
Elmira Weather Warning NWS WEATHER ALERT FOR THE ELMIRA, MO AREA - Issued: 205 AM CDT Sun Apr 11 2021 Elmira Weather Warning  

Helpful Tip: Abbreviated, 7 Day, 14 Day Forecasts. There is a weather forecast for every taste.

Feedback


°F Click to change Elmira hourly weather to Imperial units.Click to change Elmira hourly weather to Metric units. °C
Elmira Weather Map
UTC Time: 4/11/2021, 07:49
Your Time:

Elmira, MO Regional Weather

Expires:202104110800;;370318
ASUS43 KEAX 110715
RWREAX

WEATHER ROUNDUP FOR EASTERN KANSAS AND NORTHWEST MISSOURI
NATIONAL WEATHER SERVICE KANSAS CITY/PLEASANT HILL MO
200 AM CDT SUN APR 11 2021


MOZ001>008-011>017-020>025-030>033-038>040-044>046-053-054-110800-
...NORTHERN AND CENTRAL MISSOURI...
  
CITY           SKY/WX    TMP DP  RH WIND       PRES   REMARKS
ST. JOSEPH     CLEAR     45  32  60 W5        29.63F                  
MOSBY          PTCLDY    46  34  61 W3        29.62S                  
HARRISONVILLE  CLEAR     46  36  66 NW3       29.66F                  
WHITEMAN AFB   CLEAR     47  35  63 W12       29.57S                  
CLINTON        CLEAR     46  39  76 W8        29.63S                  
SEDALIA        PTCLDY    50  37  61 W12       29.60S                  
MARSHALL       PTCLDY    48  37  66 W9        29.60S                  
CHILLICOTHE      N/A     48  38  68 NW6       29.60S                  
KIRKSVILLE     CLOUDY    46  32  58 NW13G22   29.53F                  

$$


SKY/WX - Weather  TMP - Temperature  DP - Dew Point  RH - Relative Humidity
WIND - Wind Direction/Speed PRES - Barometric Pressure VSB - Visibility
WCI - Wind Chill Index E13G22 Wind - East Wind 13 mph/Gusts of 22 mph